Weather Roundup
Issued by NWS

Home | Current Version | Previous Version | Text Only | Print | Product List | Glossary On
Versions: 1 2 3 4 5 6 7 8 9 10 11 12 13 14 15 16 17 18 19 20 21 22 23 24 25 26 27 28 29 30 31 32 33 34 35 36 37 38 39 40 41 42 43 44 45 46 47 48 49 50
000
NZUS93 KARX 041210
HRRWXR

CURRENT HOURLY OBSERVATIONS ACROSS
MUCH OF THE UPPER MISSISSIPPI VALLEY
NATIONAL WEATHER SERVICE LA CROSSE WI
700 AM CDT FRI SEP 04 2015


...SOUTHEAST MINNESOTA...


CITY           SKY/WX    TMP DP  RH WIND       PRES   REMARKS
ROCHESTER      FOG       70  70 100 SE9       29.97R VSB 1/4
ROCHESTER/MAYO CLOUDY    69  69 100 SE12      29.96R
WINONA         PTCLDY    70  64  83 SE6       29.97S
AUSTIN         CLEAR     70  68  94 SE5       29.95R
ALBERT LEA     PTCLDY    72  70  94 SE5       29.93S
DODGE CENTER   FOG       72  70  94 SE6       29.96R VSB 1/2
PRESTON        CLOUDY    69  66  93 SE8       29.99R FOG
OWATONNA       CLEAR     72  68  88 E12       29.93R
FARIBAULT      CLEAR     72  70  94 E6        29.93R
$$

...ELSEWHERE IN MINNESOTA...


CITY           SKY/WX    TMP DP  RH WIND       PRES   REMARKS
MINNEAPOLIS    MOCLDY    71  68  90 SE12      29.93R
INTNL FALLS    MOCLDY    58  57  97 SE6       29.94S
DULUTH         MOCLDY    60  59  96 E10       30.00S FOG
RED WING       CLEAR     72  66  83 SE10      29.94R
REDWOOD FALLS  CLEAR     71  69  93 SE8       29.85R
MANKATO        CLEAR     72  70  94 SE9       29.90R
WORTHINGTON    CLEAR     70  64  83 S13       29.88R
FAIRMONT       CLEAR     70  45  40 S6        29.90R
$$

...SOUTHWEST WISCONSIN...


CITY           SKY/WX    TMP DP  RH WIND       PRES   REMARKS
LA CROSSE      CLEAR     69  65  86 S6        29.98R FOG
PRAIRIE DU CHI PTCLDY    69  65  89 E3        29.98R
BOSCOBEL       CLEAR     68  66  93 CALM      29.99R
LONE ROCK      CLEAR     67  64  90 CALM      30.00R
PLATTEVILLE    PTCLDY    68  67  98 E6        30.00R
FORT MC COY    CLOUDY    68  64  85 CALM      30.01R
CAMP DOUGLAS   MOCLDY    68  68 100 E5        30.01R
VIROQUA          N/A     66  66 100 SE6       30.01R
WIS DELLS      CLOUDY    67  64  90 NE5       30.02R
$$

...ELSEWHERE IN WISCONSIN...


CITY           SKY/WX    TMP DP  RH WIND       PRES   REMARKS
MILWAUKEE      FOG       65  64  97 N5        30.00R VSB 1/2
MADISON        PTCLDY    68  65  90 CALM      30.00S
GREEN BAY      CLOUDY    66  64  93 N5        30.02  FOG
EAU CLAIRE     CLOUDY    69  64  84 E7        29.99R
BLACK RVR FLS  CLOUDY    70  64  81 E3        30.00R
MEDFORD        CLEAR     61  60  99 E6        30.05R
WAUSAU         CLEAR     60  59  96 CALM      30.04R FOG
WIS RAPIDS     CLOUDY    64  61  90 E8        30.04R FOG
MARSHFIELD     PTCLDY    63  59  87 E3        30.04R FOG
RICE LAKE      CLOUDY    67  63  85 E8        30.01S
$$

...NORTHEAST IOWA...


CITY           SKY/WX    TMP DP  RH WIND       PRES   REMARKS
DECORAH        CLEAR     68  68 100 SE7       29.97S
MASON CITY     CLEAR     68  67  96 SE6       29.95R
CHARLES CITY   CLEAR     68  68 100 E8        29.96S
OELWEIN        CLEAR     68  66  94 E5        29.98R FOG
$$

...ELSEWHERE IN IOWA...


CITY           SKY/WX    TMP DP  RH WIND       PRES   REMARKS
DES MOINES     PTCLDY    71  66  84 S8        29.93R
IOWA CITY      PTCLDY    70  68  93 CALM      29.97R
FORT DODGE     CLEAR     72  64  78 S3        29.93R
$$

...NORTHERN ILLINOIS...


CITY           SKY/WX    TMP DP  RH WIND       PRES   REMARKS
CHICAGO-OHARE  PTCLDY    69  66  90 CALM      29.99R
CHICAGO-MIDWAY PTCLDY    72  66  81 CALM      29.99R
MOLINE         MOCLDY    69  66  90 SE3       29.97R
ROCKFORD       PTCLDY    68  65  90 CALM      30.01R
PEORIA         CLEAR     73  68  84 CALM      29.99R
$$

NOTE: "FAIR" INDICATES FEW OR NO CLOUDS BELOW 12,000 FEET WITH NO
SIGNIFICANT WEATHER AND/OR OBSTRUCTIONS TO VISIBILITY. WIND
SPEEDS ARE IN MILES-PER-HOUR.



USA.gov is the U.S. government's official web portal to all federal, state and local government web resources and services.